Location: Mainz-Finthen
(49.9906°N, 8.1713°E)
Time: 10:30:03
(UTC+00:00)

Envisat - Pass Details

Date: 26 September 2021
Orbit: 764 x 766 km, 98.2° (Epoch: 26 October)

Event Time Altitude Azimuth Distance (km) Brightness Sun altitude
Rises 03:19:10 0° 28° (NNE) 3,244 7.0 -19.7°
Reaches altitude 10° 03:22:23 10° 49° (NE) 2,311 6.6 -19.3°
Maximum altitude 03:25:31 16° 87° (E) 1,907 6.0 -18.8°
Drops below altitude 10° 03:28:38 10° 126° (SE) 2,299 5.9 -18.3°
Sets 03:31:49 0° 147° (SSE) 3,219 6.4 -17.8°
